Total_Precipitation_Accumulation
1.90 1.78 1.33 0.78 0.63 0.46 0.38 0.40 0.40 0.35 0.39 0.48 0.49 0.48 0.53 0.55 0.57 0.61 0.62 0.58 0.56 0.67 0.92 1.03 1.11 1.39 1.62 1.77 1.92 2.04 2.13 2.20 2.43 2.57 2.56 2.46 2.28 2.04 1.92 1.87 1.77 1.64 1.56 1.58
1.64 1.24 0.75 0.57 0.56 0.53 0.47 0.46 0.45 0.39 0.36 0.47 0.48 0.46 0.44 0.43 0.52 0.63 0.63 0.64 0.64 0.67 0.81 0.91 0.98 1.12 1.30 1.50 1.73 1.94 2.04 2.14 2.16 2.21 2.42 2.55 2.60 2.41 2.12 1.93 1.83 1.72 1.66 1.64
1.23 0.77 0.60 0.67 0.64 0.62 0.50 0.42 0.37 0.38 0.40 0.46 0.45 0.47 0.39 0.40 0.47 0.53 0.58 0.61 0.60 0.60 0.67 0.75 0.84 1.04 1.16 1.29 1.52 1.81 1.97 2.08 2.08 2.12 2.36 2.55 2.70 2.54 2.25 1.92 1.75 1.75 1.77 1.77
1.09 0.67 0.65 0.75 0.60 0.51 0.49 0.29 0.28 0.31 0.46 0.53 0.46 0.63 0.43 0.42 0.45 0.48 0.54 0.54 0.53 0.53 0.57 0.63 0.74 0.88 0.99 1.14 1.31 1.50 1.69 1.86 2.03 2.09 2.14 2.19 2.28 2.27 2.06 1.96 1.88 1.89 1.88 1.87
1.02 0.70 0.71 0.75 0.52 0.43 0.42 0.28 0.32 0.33 0.44 0.49 0.38 0.56 0.48 0.33 0.37 0.46 0.55 0.57 0.55 0.57 0.58 0.59 0.71 0.86 0.90 1.01 1.25 1.39 1.47 1.64 1.84 1.99 2.06 2.16 2.12 2.14 2.21 2.17 2.09 2.00 1.94 1.90
0.77 0.62 0.72 0.62 0.47 0.44 0.43 0.42 0.47 0.45 0.60 0.63 0.31 0.44 0.45 0.32 0.37 0.42 0.44 0.50 0.56 0.60 0.68 0.71 0.79 0.84 0.87 0.91 1.11 1.32 1.34 1.42 1.55 1.76 1.97 2.05 1.96 1.97 2.03 2.01 1.97 1.97 1.96 1.93
1.00 0.75 0.60 0.53 0.63 0.57 0.52 0.64 0.91 0.95 0.85 0.47 0.21 0.33 0.41 0.31 0.33 0.36 0.37 0.42 0.49 0.59 0.65 0.72 0.77 0.74 0.76 0.81 0.94 1.12 1.22 1.32 1.38 1.51 1.66 1.84 1.92 1.90 1.93 1.95 1.90 1.82 1.74 1.67
0.96 1.01 0.62 0.50 0.59 0.62 0.48 0.48 0.63 0.63 0.39 0.26 0.21 0.31 0.35 0.31 0.27 0.24 0.26 0.32 0.41 0.49 0.51 0.55 0.64 0.68 0.72 0.74 0.79 0.87 0.93 1.02 1.09 1.15 1.26 1.40 1.61 1.71 1.67 1.72 1.72 1.69 1.61 1.58
0.57 0.63 0.40 0.34 0.36 0.40 0.51 0.43 0.28 0.47 0.38 0.34 0.25 0.24 0.26 0.24 0.23 0.23 0.25 0.30 0.39 0.46 0.50 0.51 0.57 0.61 0.66 0.70 0.74 0.76 0.78 0.84 0.93 0.95 1.02 1.06 1.23 1.37 1.42 1.47 1.46 1.39 1.39 1.45
0.31 0.41 0.34 0.30 0.36 0.37 0.35 0.33 0.41 0.68 0.58 0.43 0.24 0.21 0.32 0.28 0.22 0.24 0.29 0.31 0.38 0.48 0.48 0.46 0.52 0.55 0.59 0.64 0.70 0.69 0.69 0.71 0.82 0.88 0.92 0.94 1.00 1.08 1.20 1.28 1.21 1.18 1.20 1.24
0.24 0.36 0.37 0.34 0.36 0.30 0.25 0.32 0.37 0.45 0.41 0.41 0.26 0.27 0.31 0.31 0.27 0.27 0.30 0.34 0.42 0.47 0.48 0.48 0.51 0.54 0.57 0.63 0.64 0.63 0.67 0.69 0.73 0.79 0.79 0.81 0.85 0.88 0.94 1.01 1.03 1.01 1.05 1.04
0.15 0.26 0.32 0.24 0.15 0.14 0.21 0.20 0.26 0.47 0.33 0.25 0.26 0.30 0.27 0.26 0.25 0.25 0.27 0.32 0.38 0.41 0.45 0.45 0.46 0.50 0.54 0.55 0.52 0.51 0.59 0.63 0.68 0.72 0.70 0.72 0.75 0.77 0.79 0.82 0.87 0.87 0.89 0.91
0.18 0.27 0.36 0.34 0.27 0.26 0.29 0.18 0.19 0.36 0.52 0.36 0.31 0.30 0.24 0.20 0.20 0.21 0.23 0.25 0.30 0.32 0.33 0.33 0.34 0.36 0.37 0.37 0.37 0.42 0.47 0.47 0.49 0.52 0.51 0.53 0.56 0.59 0.64 0.67 0.67 0.69 0.74 0.79
0.39 0.33 0.28 0.33 0.31 0.38 0.36 0.18 0.18 0.53 0.68 0.29 0.17 0.22 0.20 0.19 0.21 0.23 0.23 0.22 0.23 0.25 0.25 0.27 0.28 0.27 0.28 0.29 0.32 0.34 0.33 0.35 0.39 0.39 0.39 0.41 0.44 0.47 0.49 0.52 0.51 0.52 0.56 0.61
0.40 0.37 0.20 0.24 0.29 0.45 0.38 0.22 0.21 0.35 0.28 0.28 0.16 0.16 0.19 0.20 0.24 0.26 0.23 0.20 0.19 0.19 0.20 0.22 0.23 0.23 0.24 0.25 0.26 0.27 0.28 0.35 0.39 0.41 0.40 0.38 0.38 0.40 0.43 0.45 0.45 0.44 0.44 0.45
0.36 0.39 0.29 0.31 0.28 0.38 0.31 0.15 0.14 0.15 0.13 0.13 0.12 0.16 0.16 0.19 0.24 0.27 0.25 0.19 0.15 0.14 0.15 0.16 0.18 0.19 0.20 0.22 0.25 0.28 0.33 0.41 0.45 0.48 0.43 0.40 0.39 0.38 0.36 0.35 0.35 0.35 0.36 0.37
0.38 0.49 0.62 0.51 0.25 0.29 0.25 0.14 0.13 0.12 0.09 0.10 0.15 0.15 0.14 0.21 0.25 0.23 0.18 0.13 0.11 0.11 0.12 0.13 0.14 0.17 0.19 0.25 0.30 0.36 0.41 0.47 0.49 0.52 0.48 0.42 0.39 0.37 0.34 0.31 0.31 0.33 0.36 0.39
0.25 0.45 0.73 0.65 0.41 0.40 0.24 0.17 0.15 0.13 0.09 0.07 0.09 0.08 0.09 0.14 0.15 0.14 0.11 0.09 0.08 0.07 0.08 0.08 0.10 0.12 0.14 0.19 0.26 0.33 0.40 0.51 0.54 0.53 0.51 0.50 0.50 0.50 0.52 0.52 0.52 0.53 0.52 0.53
0.09 0.32 0.58 0.51 0.38 0.19 0.09 0.10 0.12 0.13 0.11 0.07 0.06 0.05 0.04 0.06 0.12 0.17 0.14 0.11 0.08 0.06 0.06 0.06 0.07 0.08 0.08 0.11 0.17 0.26 0.38 0.53 0.64 0.69 0.68 0.68 0.72 0.77 0.81 0.83 0.82 0.81 0.82 0.82
0.06 0.18 0.42 0.41 0.33 0.13 0.06 0.03 0.03 0.05 0.11 0.04 0.03 0.03 0.02 0.04 0.10 0.16 0.17 0.14 0.12 0.10 0.08 0.07 0.07 0.09 0.11 0.13 0.20 0.33 0.49 0.63 0.73 0.76 0.80 0.83 0.90 0.96 0.94 0.92 0.89 0.82 0.76 0.75
0.13 0.24 0.35 0.34 0.30 0.09 0.03 0.01 0.01 0.08 0.11 0.03 0.02 0.02 0.02 0.04 0.06 0.07 0.11 0.15 0.15 0.16 0.18 0.18 0.19 0.22 0.24 0.26 0.35 0.50 0.60 0.68 0.71 0.71 0.73 0.75 0.75 0.76 0.75 0.73 0.70 0.65 0.59 0.53
0.08 0.15 0.17 0.19 0.28 0.15 0.04 0.03 0.06 0.08 0.04 0.02 0.02 0.03 0.04 0.04 0.03 0.04 0.05 0.08 0.12 0.16 0.22 0.29 0.35 0.38 0.38 0.40 0.47 0.55 0.56 0.55 0.53 0.50 0.48 0.46 0.41 0.38 0.39 0.40 0.41 0.40 0.37 0.32
0.09 0.12 0.13 0.15 0.18 0.11 0.07 0.06 0.06 0.05 0.05 0.03 0.03 0.03 0.03 0.03 0.03 0.02 0.02 0.03 0.05 0.07 0.10 0.14 0.20 0.24 0.25 0.25 0.28 0.30 0.27 0.23 0.20 0.17 0.16 0.14 0.12 0.12 0.13 0.14 0.15 0.18 0.21 0.21
0.11 0.07 0.08 0.10 0.09 0.07 0.07 0.07 0.06 0.05 0.05 0.05 0.04 0.04 0.04 0.04 0.03 0.04 0.03 0.02 0.03 0.03 0.04 0.05 0.06 0.07 0.08 0.08 0.09 0.09 0.08 0.06 0.05 0.04 0.05 0.05 0.05 0.07 0.08 0.09 0.11 0.13 0.14 0.15
0.12 0.09 0.09 0.09 0.07 0.06 0.05 0.04 0.03 0.03 0.02 0.03 0.03 0.03 0.03 0.04 0.05 0.05 0.05 0.04 0.03 0.03 0.04 0.04 0.04 0.05 0.05 0.05 0.05 0.06 0.06 0.06 0.06 0.05 0.05 0.06 0.07 0.08 0.08 0.09 0.11 0.12 0.13 0.15
0.07 0.09 0.14 0.14 0.08 0.07 0.06 0.03 0.02 0.02 0.02 0.02 0.03 0.03 0.03 0.04 0.05 0.05 0.04 0.05 0.05 0.05 0.05 0.05 0.05 0.06 0.07 0.08 0.09 0.09 0.10 0.10 0.10 0.10 0.09 0.09 0.10 0.11 0.11 0.11 0.12 0.14 0.16 0.18